Year,Month,Day,Hour,Minute,Value (Times are PST for temperature in C)
2009,07,22,00,00,20.50
2009,07,22,00,01,20.50
2009,07,22,00,02,20.50
2009,07,22,00,03,20.50
2009,07,22,00,04,20.50
2009,07,22,00,05,20.50
2009,07,22,00,06,20.40
2009,07,22,00,07,20.40
2009,07,22,00,08,20.40
2009,07,22,00,09,20.40
2009,07,22,00,10,20.40
2009,07,22,00,11,20.40
2009,07,22,00,12,20.40
2009,07,22,00,13,20.40
2009,07,22,00,14,20.40
2009,07,22,00,15,20.40
2009,07,22,00,16,20.40
2009,07,22,00,17,20.40
2009,07,22,00,18,20.30
2009,07,22,00,19,20.30
2009,07,22,00,20,20.30
2009,07,22,00,21,20.30
2009,07,22,00,22,20.30
2009,07,22,00,23,20.30
2009,07,22,00,24,20.30
2009,07,22,00,25,20.20
2009,07,22,00,26,20.20
2009,07,22,00,27,20.20
2009,07,22,00,28,20.20
2009,07,22,00,29,20.20
2009,07,22,00,30,20.20
2009,07,22,00,31,20.20
2009,07,22,00,32,20.20
2009,07,22,00,33,20.20
2009,07,22,00,34,20.20
2009,07,22,00,35,20.30
2009,07,22,00,36,20.30
2009,07,22,00,37,20.30
2009,07,22,00,38,20.40
2009,07,22,00,39,20.40
2009,07,22,00,40,20.40
2009,07,22,00,41,20.40
2009,07,22,00,42,20.40
2009,07,22,00,43,20.40
2009,07,22,00,44,20.40
2009,07,22,00,45,20.30
2009,07,22,00,46,20.30
2009,07,22,00,47,20.30
2009,07,22,00,48,20.30
2009,07,22,00,49,20.30
2009,07,22,00,50,20.30
2009,07,22,00,51,20.20
2009,07,22,00,52,20.20
2009,07,22,00,53,20.20
2009,07,22,00,54,20.20
2009,07,22,00,55,20.10
2009,07,22,00,56,20.10
2009,07,22,00,57,20.10
2009,07,22,00,58,20.10
2009,07,22,00,59,20.10
2009,07,22,01,00,20.00
2009,07,22,01,01,20.00
2009,07,22,01,02,20.00
2009,07,22,01,03,19.90
2009,07,22,01,04,19.90
2009,07,22,01,05,19.90
2009,07,22,01,06,19.90
2009,07,22,01,07,19.80
2009,07,22,01,08,19.80
2009,07,22,01,09,19.80
2009,07,22,01,10,19.80
2009,07,22,01,11,19.70
2009,07,22,01,12,19.70
2009,07,22,01,13,19.70
2009,07,22,01,14,19.60
2009,07,22,01,15,19.60
2009,07,22,01,16,19.50
2009,07,22,01,17,19.50
2009,07,22,01,18,19.40
2009,07,22,01,19,19.40
2009,07,22,01,20,19.30
2009,07,22,01,21,19.30
2009,07,22,01,22,19.30
2009,07,22,01,23,19.30
2009,07,22,01,24,19.20
2009,07,22,01,25,19.20
2009,07,22,01,26,19.20
2009,07,22,01,27,19.20
2009,07,22,01,28,19.10
2009,07,22,01,29,19.10
2009,07,22,01,30,19.10
2009,07,22,01,31,19.10
2009,07,22,01,32,19.10
2009,07,22,01,33,19.00
2009,07,22,01,34,19.00
2009,07,22,01,35,19.00
2009,07,22,01,36,18.90
2009,07,22,01,37,18.90
2009,07,22,01,38,18.90
2009,07,22,01,39,18.90
2009,07,22,01,40,18.90
2009,07,22,01,41,18.90
2009,07,22,01,42,18.90
2009,07,22,01,43,18.90
2009,07,22,01,44,18.80
2009,07,22,01,45,18.80
2009,07,22,01,46,18.80
2009,07,22,01,47,18.80
2009,07,22,01,48,18.80
2009,07,22,01,49,18.80
2009,07,22,01,50,18.80
2009,07,22,01,51,18.80
2009,07,22,01,52,18.80
2009,07,22,01,53,18.80
2009,07,22,01,54,18.80
2009,07,22,01,55,18.80
2009,07,22,01,56,18.80
2009,07,22,01,57,18.80
2009,07,22,01,58,18.90
2009,07,22,01,59,18.90
2009,07,22,02,00,18.90
2009,07,22,02,01,18.90
2009,07,22,02,02,18.90
2009,07,22,02,03,18.90
2009,07,22,02,04,18.90
2009,07,22,02,05,18.90
2009,07,22,02,06,19.00
2009,07,22,02,07,19.00
2009,07,22,02,08,19.00
2009,07,22,02,09,19.00
2009,07,22,02,10,19.00
2009,07,22,02,11,19.00
2009,07,22,02,12,19.00
2009,07,22,02,13,19.00
2009,07,22,02,14,19.00
2009,07,22,02,15,19.00
2009,07,22,02,16,19.00
2009,07,22,02,17,19.00
2009,07,22,02,18,19.00
2009,07,22,02,19,19.00
2009,07,22,02,20,18.90
2009,07,22,02,21,18.90
2009,07,22,02,22,18.90
2009,07,22,02,23,18.90
2009,07,22,02,24,18.90
2009,07,22,02,25,18.90
2009,07,22,02,26,18.80
2009,07,22,02,27,18.80
2009,07,22,02,28,18.80
2009,07,22,02,29,18.80
2009,07,22,02,30,18.80
2009,07,22,02,31,18.80
2009,07,22,02,32,18.80
2009,07,22,02,33,18.70
2009,07,22,02,34,18.70
2009,07,22,02,35,18.60
2009,07,22,02,36,18.60
2009,07,22,02,37,18.50
2009,07,22,02,38,18.50
2009,07,22,02,39,18.50
2009,07,22,02,40,18.40
2009,07,22,02,41,18.40
2009,07,22,02,42,18.40
2009,07,22,02,43,18.30
2009,07,22,02,44,18.30
2009,07,22,02,45,18.30
2009,07,22,02,46,18.30
2009,07,22,02,47,18.20
2009,07,22,02,48,18.20
2009,07,22,02,49,18.20
2009,07,22,02,50,18.20
2009,07,22,02,51,18.20
2009,07,22,02,52,18.20
2009,07,22,02,53,18.20
2009,07,22,02,54,18.20
2009,07,22,02,55,18.20
2009,07,22,02,56,18.20
2009,07,22,02,57,18.20
2009,07,22,02,58,18.20
2009,07,22,02,59,18.20
2009,07,22,03,00,18.20
2009,07,22,03,01,18.20
2009,07,22,03,02,18.20
2009,07,22,03,06,18.20
2009,07,22,03,07,18.10
2009,07,22,03,08,18.10
2009,07,22,03,09,18.10
2009,07,22,03,10,18.10
2009,07,22,03,11,18.10
2009,07,22,03,12,18.10
2009,07,22,03,13,18.10
2009,07,22,03,14,18.10
2009,07,22,03,15,18.10
2009,07,22,03,16,18.10
2009,07,22,03,17,18.00
2009,07,22,03,18,18.00
2009,07,22,03,19,18.00
2009,07,22,03,20,18.00
2009,07,22,03,21,18.00
2009,07,22,03,22,18.00
2009,07,22,03,23,18.00
2009,07,22,03,24,18.00
2009,07,22,03,25,18.00
2009,07,22,03,26,17.90
2009,07,22,03,27,17.90
2009,07,22,03,28,17.90
2009,07,22,03,29,17.90
2009,07,22,03,30,17.90
2009,07,22,03,31,17.80
2009,07,22,03,32,17.80
2009,07,22,03,33,17.80
2009,07,22,03,34,17.70
2009,07,22,03,35,17.70
2009,07,22,03,36,17.70
2009,07,22,03,37,17.70
2009,07,22,03,38,17.70
2009,07,22,03,39,17.60
2009,07,22,03,40,17.60
2009,07,22,03,41,17.60
2009,07,22,03,42,17.50
2009,07,22,03,43,17.50
2009,07,22,03,44,17.50
2009,07,22,03,45,17.50
2009,07,22,03,46,17.50
2009,07,22,03,47,17.50
2009,07,22,03,48,17.40
2009,07,22,03,49,17.40
2009,07,22,03,50,17.40
2009,07,22,03,51,17.40
2009,07,22,03,52,17.40
2009,07,22,03,53,17.40
2009,07,22,03,54,17.40
2009,07,22,03,55,17.40
2009,07,22,03,56,17.40
2009,07,22,03,57,17.30
2009,07,22,03,58,17.30
2009,07,22,03,59,17.30
2009,07,22,04,00,17.30
2009,07,22,04,01,17.30
2009,07,22,04,02,17.30
2009,07,22,04,03,17.30
2009,07,22,04,04,17.30
2009,07,22,04,05,17.30
2009,07,22,04,06,17.20
2009,07,22,04,07,17.20
2009,07,22,04,08,17.20
2009,07,22,04,09,17.20
2009,07,22,04,10,17.20
2009,07,22,04,11,17.20
2009,07,22,04,12,17.20
2009,07,22,04,13,17.20
2009,07,22,04,14,17.20
2009,07,22,04,15,17.20
2009,07,22,04,16,17.20
2009,07,22,04,17,17.20
2009,07,22,04,18,17.20
2009,07,22,04,19,17.20
2009,07,22,04,20,17.20
2009,07,22,04,21,17.10
2009,07,22,04,22,17.10
2009,07,22,04,23,17.10
2009,07,22,04,24,17.10
2009,07,22,04,25,17.10
2009,07,22,04,26,17.10
2009,07,22,04,27,17.10
2009,07,22,04,28,17.10
2009,07,22,04,29,17.10
2009,07,22,04,30,17.10
2009,07,22,04,31,17.10
2009,07,22,04,32,17.10
2009,07,22,04,33,17.10
2009,07,22,04,34,17.00
2009,07,22,04,35,17.00
2009,07,22,04,36,17.00
2009,07,22,04,37,16.90
2009,07,22,04,38,16.90
2009,07,22,04,39,16.90
2009,07,22,04,40,16.90
2009,07,22,04,41,16.90
2009,07,22,04,42,16.90
2009,07,22,04,43,16.80
2009,07,22,04,44,16.80
2009,07,22,04,45,16.80
2009,07,22,04,46,16.80
2009,07,22,04,47,16.70
2009,07,22,04,48,16.70
2009,07,22,04,49,16.70
2009,07,22,04,50,16.70
2009,07,22,04,51,16.70
2009,07,22,04,52,16.60
2009,07,22,04,53,16.60
2009,07,22,04,54,16.60
2009,07,22,04,55,16.60
2009,07,22,04,56,16.60
2009,07,22,04,57,16.60
2009,07,22,04,58,16.50
2009,07,22,04,59,16.50
2009,07,22,05,00,16.50
2009,07,22,05,01,16.50
2009,07,22,05,02,16.50
2009,07,22,05,03,16.40
2009,07,22,05,04,16.40
2009,07,22,05,05,16.40
2009,07,22,05,06,16.40
2009,07,22,05,07,16.40
2009,07,22,05,08,16.40
2009,07,22,05,09,16.40
2009,07,22,05,10,16.40
2009,07,22,05,11,16.30
2009,07,22,05,12,16.30
2009,07,22,05,13,16.30
2009,07,22,05,14,16.30
2009,07,22,05,15,16.30
2009,07,22,05,16,16.20
2009,07,22,05,17,16.20
2009,07,22,05,18,16.20
2009,07,22,05,19,16.20
2009,07,22,05,20,16.10
2009,07,22,05,21,16.10
2009,07,22,05,22,16.10
2009,07,22,05,23,16.10
2009,07,22,05,24,16.10
2009,07,22,05,25,16.00
2009,07,22,05,26,16.00
2009,07,22,05,27,16.00
2009,07,22,05,28,15.90
2009,07,22,05,29,15.90
2009,07,22,05,30,15.90
2009,07,22,05,31,15.90
2009,07,22,05,32,15.80
2009,07,22,05,33,15.80
2009,07,22,05,34,15.80
2009,07,22,05,35,15.80
2009,07,22,05,36,15.80
2009,07,22,05,37,15.80
2009,07,22,05,38,15.80
2009,07,22,05,39,15.80
2009,07,22,05,40,15.80
2009,07,22,05,41,15.80
2009,07,22,05,42,15.80
2009,07,22,05,43,15.80
2009,07,22,05,44,15.80
2009,07,22,05,45,15.70
2009,07,22,05,46,15.80
2009,07,22,05,47,15.70
2009,07,22,05,48,15.70
2009,07,22,05,49,15.70
2009,07,22,05,50,15.70
2009,07,22,05,51,15.70
2009,07,22,05,52,15.70
2009,07,22,05,53,15.70
2009,07,22,05,54,15.70
2009,07,22,05,55,15.70
2009,07,22,05,56,15.70
2009,07,22,05,57,15.70
2009,07,22,05,58,15.70
2009,07,22,05,59,15.70
2009,07,22,06,00,15.70
2009,07,22,06,01,15.70
2009,07,22,06,02,15.70
2009,07,22,06,03,15.70
2009,07,22,06,04,15.70
2009,07,22,06,05,15.70
2009,07,22,06,06,15.70
2009,07,22,06,07,15.70
2009,07,22,06,08,15.80
2009,07,22,06,09,15.80
2009,07,22,06,10,15.80
2009,07,22,06,11,15.80
2009,07,22,06,12,15.80
2009,07,22,06,13,15.90
2009,07,22,06,14,15.90
2009,07,22,06,15,15.90
2009,07,22,06,16,15.90
2009,07,22,06,17,16.00
2009,07,22,06,18,16.00
2009,07,22,06,19,16.00
2009,07,22,06,20,16.10
2009,07,22,06,21,16.10
2009,07,22,06,22,16.20
2009,07,22,06,23,16.20
2009,07,22,06,24,16.30
2009,07,22,06,25,16.30
2009,07,22,06,26,16.40
2009,07,22,06,27,16.40
2009,07,22,06,28,16.40
2009,07,22,06,29,16.50
2009,07,22,06,30,16.50
2009,07,22,06,31,16.60
2009,07,22,06,32,16.60
2009,07,22,06,33,16.60
2009,07,22,06,34,16.60
2009,07,22,06,35,16.60
2009,07,22,06,36,16.70
2009,07,22,06,37,16.70
2009,07,22,06,38,16.60
2009,07,22,06,39,16.60
2009,07,22,06,40,16.70
2009,07,22,06,41,16.70
2009,07,22,06,42,16.60
2009,07,22,06,43,16.60
2009,07,22,06,44,16.60
2009,07,22,06,45,16.60
2009,07,22,06,46,16.70
2009,07,22,06,47,16.70
2009,07,22,06,48,16.70
2009,07,22,06,49,16.70
2009,07,22,06,50,16.70
2009,07,22,06,51,16.80
2009,07,22,06,52,16.80
2009,07,22,06,53,16.80
2009,07,22,06,54,16.80
2009,07,22,06,55,16.90
2009,07,22,06,56,16.90
2009,07,22,06,57,16.90
2009,07,22,06,58,16.90
2009,07,22,06,59,16.90
2009,07,22,07,00,16.90
2009,07,22,07,01,16.90
2009,07,22,07,02,16.90
2009,07,22,07,03,17.00
2009,07,22,07,04,17.00
2009,07,22,07,05,17.00
2009,07,22,07,06,17.00
2009,07,22,07,07,17.10
2009,07,22,07,08,17.10
2009,07,22,07,09,17.10
2009,07,22,07,10,17.10
2009,07,22,07,11,17.20
2009,07,22,07,12,17.20
2009,07,22,07,13,17.30
2009,07,22,07,14,17.30
2009,07,22,07,15,17.30
2009,07,22,07,16,17.40
2009,07,22,07,17,17.40
2009,07,22,07,18,17.40
2009,07,22,07,19,17.50
2009,07,22,07,20,17.50
2009,07,22,07,21,17.50
2009,07,22,07,22,17.60
2009,07,22,07,23,17.60
2009,07,22,07,24,17.60
2009,07,22,07,25,17.70
2009,07,22,07,26,17.70
2009,07,22,07,27,17.80
2009,07,22,07,28,17.80
2009,07,22,07,29,17.80
2009,07,22,07,30,17.90
2009,07,22,07,31,17.90
2009,07,22,07,32,17.90
2009,07,22,07,33,18.00
2009,07,22,07,34,18.00
2009,07,22,07,35,18.00
2009,07,22,07,36,18.10
2009,07,22,07,37,18.10
2009,07,22,07,38,18.10
2009,07,22,07,39,18.20
2009,07,22,07,40,18.20
2009,07,22,07,41,18.30
2009,07,22,07,42,18.30
2009,07,22,07,43,18.40
2009,07,22,07,44,18.40
2009,07,22,07,45,18.40
2009,07,22,07,46,18.50
2009,07,22,07,47,18.50
2009,07,22,07,48,18.60
2009,07,22,07,49,18.60
2009,07,22,07,50,18.60
2009,07,22,07,51,18.60
2009,07,22,07,52,18.70
2009,07,22,07,53,18.70
2009,07,22,07,54,18.80
2009,07,22,07,55,18.80
2009,07,22,07,56,18.80
2009,07,22,07,57,18.90
2009,07,22,07,58,18.90
2009,07,22,07,59,18.90
2009,07,22,08,00,18.90
2009,07,22,08,01,19.00
2009,07,22,08,02,19.00
2009,07,22,08,03,19.00
2009,07,22,08,04,19.10
2009,07,22,08,05,19.10
2009,07,22,08,06,19.10
2009,07,22,08,07,19.10
2009,07,22,08,08,19.10
2009,07,22,08,09,19.20
2009,07,22,08,10,19.30
2009,07,22,08,11,19.30
2009,07,22,08,12,19.30
2009,07,22,08,13,19.40
2009,07,22,08,14,19.40
2009,07,22,08,15,19.50
2009,07,22,08,16,19.50
2009,07,22,08,17,19.60
2009,07,22,08,18,19.60
2009,07,22,08,19,19.70
2009,07,22,08,20,19.80
2009,07,22,08,21,19.80
2009,07,22,08,22,19.90
2009,07,22,08,23,19.90
2009,07,22,08,24,20.00
2009,07,22,08,25,20.00
2009,07,22,08,26,20.10
2009,07,22,08,27,20.20
2009,07,22,08,28,20.20
2009,07,22,08,29,20.30
2009,07,22,08,30,20.40
2009,07,22,08,31,20.40
2009,07,22,08,32,20.40
2009,07,22,08,33,20.40
2009,07,22,08,34,20.50
2009,07,22,08,35,20.50
2009,07,22,08,36,20.50
2009,07,22,08,37,20.50
2009,07,22,08,38,20.60
2009,07,22,08,39,20.60
2009,07,22,08,40,20.60
2009,07,22,08,41,20.60
2009,07,22,08,42,20.70
2009,07,22,08,43,20.70
2009,07,22,08,44,20.80
2009,07,22,08,45,20.80
2009,07,22,08,46,20.80
2009,07,22,08,47,20.90
2009,07,22,08,48,20.80
2009,07,22,08,49,20.80
2009,07,22,08,50,20.80
2009,07,22,08,51,20.80
2009,07,22,08,52,20.80
2009,07,22,08,53,20.80
2009,07,22,08,54,20.80
2009,07,22,08,55,20.80
2009,07,22,08,56,20.80
2009,07,22,08,57,20.90
2009,07,22,08,58,20.90
2009,07,22,08,59,21.00
2009,07,22,09,00,21.00
2009,07,22,09,01,21.10
2009,07,22,09,02,21.10
2009,07,22,09,03,21.20
2009,07,22,09,04,21.20
2009,07,22,09,05,21.20
2009,07,22,09,06,21.20
2009,07,22,09,07,21.30
2009,07,22,09,08,21.40
2009,07,22,09,09,21.40
2009,07,22,09,10,21.50
2009,07,22,09,11,21.60
2009,07,22,09,12,21.60
2009,07,22,09,13,21.70
2009,07,22,09,14,21.70
2009,07,22,09,15,21.70
2009,07,22,09,16,21.80
2009,07,22,09,17,21.90
2009,07,22,09,18,22.00
2009,07,22,09,19,22.10
2009,07,22,09,20,22.10
2009,07,22,09,21,22.20
2009,07,22,09,22,22.30
2009,07,22,09,23,22.30
2009,07,22,09,24,22.30
2009,07,22,09,25,22.30
2009,07,22,09,26,22.30
2009,07,22,09,27,22.40
2009,07,22,09,28,22.30
2009,07,22,09,29,22.30
2009,07,22,09,30,22.30
2009,07,22,09,31,22.30
2009,07,22,09,32,22.30
2009,07,22,09,33,22.30
2009,07,22,09,34,22.30
2009,07,22,09,35,22.30
2009,07,22,09,36,22.30
2009,07,22,09,37,22.20
2009,07,22,09,38,22.00
2009,07,22,09,39,21.90
2009,07,22,09,40,21.80
2009,07,22,09,41,21.80
2009,07,22,09,42,21.80
2009,07,22,09,43,21.80
2009,07,22,09,44,21.80
2009,07,22,09,45,21.80
2009,07,22,09,46,21.80
2009,07,22,09,47,21.80
2009,07,22,09,48,21.80
2009,07,22,09,49,21.80
2009,07,22,09,50,21.70
2009,07,22,09,51,21.60
2009,07,22,09,52,21.60
2009,07,22,09,53,21.50
2009,07,22,09,54,21.40
2009,07,22,09,55,21.40
2009,07,22,09,56,21.40
2009,07,22,09,57,21.40
2009,07,22,09,58,21.40
2009,07,22,09,59,21.30
2009,07,22,10,00,21.30
2009,07,22,10,01,21.30
2009,07,22,10,02,21.40
2009,07,22,10,03,21.50
2009,07,22,10,04,21.50
2009,07,22,10,05,21.60
2009,07,22,10,06,21.60
2009,07,22,10,07,21.60
2009,07,22,10,08,21.70
2009,07,22,10,09,21.70
2009,07,22,10,10,21.70
2009,07,22,10,11,21.80
2009,07,22,10,12,21.80
2009,07,22,10,13,21.90
2009,07,22,10,14,21.90
2009,07,22,10,15,21.90
2009,07,22,10,16,21.90
2009,07,22,10,17,21.80
2009,07,22,10,18,21.80
2009,07,22,10,19,21.80
2009,07,22,10,20,21.80
2009,07,22,10,21,21.80
2009,07,22,10,22,21.70
2009,07,22,10,23,21.60
2009,07,22,10,24,21.60
2009,07,22,10,25,21.50
2009,07,22,10,26,21.40
2009,07,22,10,27,21.30
2009,07,22,10,28,21.30
2009,07,22,10,29,21.20
2009,07,22,10,30,21.20
2009,07,22,10,31,21.20
2009,07,22,10,32,21.20
2009,07,22,10,33,21.20
2009,07,22,10,34,21.20
2009,07,22,10,35,21.30
2009,07,22,10,36,21.20
2009,07,22,10,37,21.20
2009,07,22,10,38,21.20
2009,07,22,10,39,21.20
2009,07,22,10,40,21.20
2009,07,22,10,41,21.40
2009,07,22,10,42,21.50
2009,07,22,10,43,21.60
2009,07,22,10,44,21.60
2009,07,22,10,45,21.70
2009,07,22,10,46,21.80
2009,07,22,10,47,21.80
2009,07,22,10,48,21.90
2009,07,22,10,49,21.90
2009,07,22,10,50,21.80
2009,07,22,10,51,21.80
2009,07,22,10,52,21.70
2009,07,22,10,53,21.70
2009,07,22,10,54,21.70
2009,07,22,10,55,21.70
2009,07,22,10,56,21.80
2009,07,22,10,57,21.80
2009,07,22,10,58,21.80
2009,07,22,10,59,21.90
2009,07,22,11,00,21.90
2009,07,22,11,01,22.00
2009,07,22,11,02,22.10
2009,07,22,11,03,22.20
2009,07,22,11,04,22.30
2009,07,22,11,05,22.30
2009,07,22,11,06,22.30
2009,07,22,11,07,22.30
2009,07,22,11,08,22.30
2009,07,22,11,09,22.20
2009,07,22,11,10,22.20
2009,07,22,11,11,22.20
2009,07,22,11,12,22.10
2009,07,22,11,13,22.10
2009,07,22,11,14,22.10
2009,07,22,11,15,22.20
2009,07,22,11,16,22.20
2009,07,22,11,17,22.20
2009,07,22,11,18,22.20
2009,07,22,11,19,22.30
2009,07,22,11,20,22.30
2009,07,22,11,21,22.30
2009,07,22,11,22,22.30
2009,07,22,11,23,22.30
2009,07,22,11,24,22.40
2009,07,22,11,25,22.60
2009,07,22,11,26,22.60
2009,07,22,11,27,22.50
2009,07,22,11,28,22.60
2009,07,22,11,29,22.60
2009,07,22,11,30,22.50
2009,07,22,11,31,22.40
2009,07,22,11,32,22.30
2009,07,22,11,33,22.30
2009,07,22,11,34,22.30
2009,07,22,11,35,22.40
2009,07,22,11,36,22.60
2009,07,22,11,37,22.70
2009,07,22,11,38,22.80
2009,07,22,11,39,22.90
2009,07,22,11,40,23.00
2009,07,22,11,41,23.10
2009,07,22,11,42,23.10
2009,07,22,11,43,23.10
2009,07,22,11,44,23.20
2009,07,22,11,45,23.30
2009,07,22,11,46,23.40
2009,07,22,11,47,23.40
2009,07,22,11,48,23.40
2009,07,22,11,49,23.50
2009,07,22,11,50,23.70
2009,07,22,11,51,23.80
2009,07,22,11,52,23.80
2009,07,22,11,53,23.90
2009,07,22,11,54,24.00
2009,07,22,11,55,24.10
2009,07,22,11,56,24.10
2009,07,22,11,57,24.10
2009,07,22,11,58,24.20
2009,07,22,11,59,24.30
2009,07,22,12,00,24.30
2009,07,22,12,01,24.30
2009,07,22,12,02,24.30
2009,07,22,12,03,24.30
2009,07,22,12,04,24.20
2009,07,22,12,05,24.20
2009,07,22,12,06,24.20
2009,07,22,12,07,24.20
2009,07,22,12,08,24.30
2009,07,22,12,09,24.30
2009,07,22,12,10,24.20
2009,07,22,12,11,24.10
2009,07,22,12,12,24.20
2009,07,22,12,13,24.30
2009,07,22,12,14,24.40
2009,07,22,12,15,24.40
2009,07,22,12,16,24.30
2009,07,22,12,17,24.20
2009,07,22,12,18,24.10
2009,07,22,12,19,24.00
2009,07,22,12,20,24.00
2009,07,22,12,21,24.00
2009,07,22,12,22,24.00
2009,07,22,12,23,24.10
2009,07,22,12,24,24.10
2009,07,22,12,25,24.20
2009,07,22,12,26,24.10
2009,07,22,12,27,24.00
2009,07,22,12,28,24.10
2009,07,22,12,29,24.20
2009,07,22,12,30,24.30
2009,07,22,12,31,24.30
2009,07,22,12,32,24.40
2009,07,22,12,33,24.50
2009,07,22,12,34,24.60
2009,07,22,12,35,24.80
2009,07,22,12,36,25.00
2009,07,22,12,37,25.20
2009,07,22,12,38,25.30
2009,07,22,12,39,25.40
2009,07,22,12,40,25.40
2009,07,22,12,41,25.40
2009,07,22,12,42,25.30
2009,07,22,12,43,25.10
2009,07,22,12,44,25.00
2009,07,22,12,45,25.00
2009,07,22,12,46,24.90
2009,07,22,12,47,24.80
2009,07,22,12,48,24.70
2009,07,22,12,49,24.70
2009,07,22,12,50,24.80
2009,07,22,12,51,24.80
2009,07,22,12,52,24.90
2009,07,22,12,53,25.00
2009,07,22,12,54,25.10
2009,07,22,12,55,25.20
2009,07,22,12,56,25.30
2009,07,22,12,57,25.30
2009,07,22,12,58,25.40
2009,07,22,12,59,25.50
2009,07,22,13,00,25.50
2009,07,22,13,01,25.40
2009,07,22,13,02,25.30
2009,07,22,13,03,25.30
2009,07,22,13,04,25.30
2009,07,22,13,05,25.20
2009,07,22,13,06,25.10
2009,07,22,13,07,24.90
2009,07,22,13,08,24.90
2009,07,22,13,09,24.90
2009,07,22,13,10,24.90
2009,07,22,13,11,25.10
2009,07,22,13,12,25.20
2009,07,22,13,13,25.40
2009,07,22,13,14,25.40
2009,07,22,13,15,25.50
2009,07,22,13,16,25.60
2009,07,22,13,17,25.60
2009,07,22,13,18,25.60
2009,07,22,13,19,25.60
2009,07,22,13,20,25.60
2009,07,22,13,21,25.60
2009,07,22,13,22,25.60
2009,07,22,13,23,25.70
2009,07,22,13,24,25.70
2009,07,22,13,25,25.80
2009,07,22,13,26,25.90
2009,07,22,13,27,25.90
2009,07,22,13,28,25.90
2009,07,22,13,29,25.80
2009,07,22,13,30,25.70
2009,07,22,13,31,25.60
2009,07,22,13,32,25.40
2009,07,22,13,33,25.30
2009,07,22,13,34,25.30
2009,07,22,13,35,25.30
2009,07,22,13,36,25.40
2009,07,22,13,37,25.30
2009,07,22,13,38,25.20
2009,07,22,13,39,25.20
2009,07,22,13,40,25.20
2009,07,22,13,41,25.20
2009,07,22,13,42,25.20
2009,07,22,13,43,25.20
2009,07,22,13,44,25.20
2009,07,22,13,45,25.20
2009,07,22,13,46,25.20
2009,07,22,13,47,25.20
2009,07,22,13,48,25.20
2009,07,22,13,49,25.10
2009,07,22,13,50,25.10
2009,07,22,13,51,25.10
2009,07,22,13,52,25.10
2009,07,22,13,53,25.20
2009,07,22,13,54,25.30
2009,07,22,13,55,25.40
2009,07,22,13,56,25.60
2009,07,22,13,57,25.70
2009,07,22,13,58,25.80
2009,07,22,13,59,25.90
2009,07,22,14,00,26.00
2009,07,22,14,01,26.10
2009,07,22,14,02,26.00
2009,07,22,14,03,25.90
2009,07,22,14,04,25.90
2009,07,22,14,05,25.80
2009,07,22,14,06,25.80
2009,07,22,14,07,25.80
2009,07,22,14,08,25.80
2009,07,22,14,09,25.70
2009,07,22,14,10,25.60
2009,07,22,14,11,25.50
2009,07,22,14,12,25.50
2009,07,22,14,13,25.60
2009,07,22,14,14,25.60
2009,07,22,14,15,25.70
2009,07,22,14,16,25.80
2009,07,22,14,17,25.70
2009,07,22,14,18,25.70
2009,07,22,14,19,25.80
2009,07,22,14,20,25.90
2009,07,22,14,21,26.00
2009,07,22,14,22,26.10
2009,07,22,14,23,26.10
2009,07,22,14,24,26.00
2009,07,22,14,25,25.90
2009,07,22,14,26,25.60
2009,07,22,14,27,25.40
2009,07,22,14,28,25.30
2009,07,22,14,29,25.20
2009,07,22,14,30,25.10
2009,07,22,14,31,25.10
2009,07,22,14,32,25.00
2009,07,22,14,33,25.10
2009,07,22,14,34,25.20
2009,07,22,14,35,25.40
2009,07,22,14,36,25.50
2009,07,22,14,37,25.60
2009,07,22,14,38,25.70
2009,07,22,14,39,25.70
2009,07,22,14,40,25.80
2009,07,22,14,41,25.80
2009,07,22,14,42,25.70
2009,07,22,14,43,25.70
2009,07,22,14,44,25.70
2009,07,22,14,45,25.70
2009,07,22,14,46,25.80
2009,07,22,14,47,25.90
2009,07,22,14,48,26.00
2009,07,22,14,49,26.20
2009,07,22,14,50,26.10
2009,07,22,14,51,26.00
2009,07,22,14,52,26.10
2009,07,22,14,53,26.00
2009,07,22,14,54,26.00
2009,07,22,14,55,26.10
2009,07,22,14,56,26.20
2009,07,22,14,57,26.20
2009,07,22,14,58,26.30
2009,07,22,14,59,26.40
2009,07,22,15,00,26.50
2009,07,22,15,01,26.60
2009,07,22,15,02,26.70
2009,07,22,15,03,26.70
2009,07,22,15,04,26.80
2009,07,22,15,05,26.80
2009,07,22,15,06,26.90
2009,07,22,15,07,27.00
2009,07,22,15,08,27.10
2009,07,22,15,09,27.10
2009,07,22,15,10,27.20
2009,07,22,15,11,27.10
2009,07,22,15,12,27.10
2009,07,22,15,13,27.10
2009,07,22,15,14,27.00
2009,07,22,15,15,27.00
2009,07,22,15,16,26.90
2009,07,22,15,17,26.80
2009,07,22,15,18,26.80
2009,07,22,15,19,26.80
2009,07,22,15,20,26.80
2009,07,22,15,21,26.80
2009,07,22,15,22,26.80
2009,07,22,15,23,26.70
2009,07,22,15,24,26.60
2009,07,22,15,25,26.60
2009,07,22,15,26,26.50
2009,07,22,15,27,26.50
2009,07,22,15,28,26.40
2009,07,22,15,29,26.40
2009,07,22,15,30,26.50
2009,07,22,15,31,26.50
2009,07,22,15,32,26.50
2009,07,22,15,33,26.50
2009,07,22,15,34,26.50
2009,07,22,15,35,26.40
2009,07,22,15,36,26.40
2009,07,22,15,37,26.40
2009,07,22,15,38,26.50
2009,07,22,15,39,26.60
2009,07,22,15,40,26.60
2009,07,22,15,41,26.60
2009,07,22,15,42,26.60
2009,07,22,15,43,26.60
2009,07,22,15,44,26.50
2009,07,22,15,45,26.40
2009,07,22,15,46,26.40
2009,07,22,15,47,26.30
2009,07,22,15,48,26.30
2009,07,22,15,49,26.20
2009,07,22,15,50,26.10
2009,07,22,15,51,26.00
2009,07,22,15,52,26.00
2009,07,22,15,53,26.00
2009,07,22,15,54,26.00
2009,07,22,15,55,26.00
2009,07,22,15,56,26.20
2009,07,22,15,57,26.20
2009,07,22,15,58,26.30
2009,07,22,15,59,26.50
2009,07,22,16,00,26.60
2009,07,22,16,01,26.70
2009,07,22,16,02,26.80
2009,07,22,16,03,26.90
2009,07,22,16,04,26.90
2009,07,22,16,05,26.70
2009,07,22,16,06,26.50
2009,07,22,16,07,26.40
2009,07,22,16,08,26.40
2009,07,22,16,09,26.40
2009,07,22,16,10,26.40
2009,07,22,16,11,26.50
2009,07,22,16,12,26.50
2009,07,22,16,13,26.40
2009,07,22,16,14,26.40
2009,07,22,16,15,26.40
2009,07,22,16,16,26.40
2009,07,22,16,17,26.20
2009,07,22,16,18,26.10
2009,07,22,16,19,26.00
2009,07,22,16,20,25.90
2009,07,22,16,21,25.90
2009,07,22,16,22,25.90
2009,07,22,16,23,25.90
2009,07,22,16,24,25.90
2009,07,22,16,25,25.90
2009,07,22,16,26,25.90
2009,07,22,16,27,25.90
2009,07,22,16,28,25.90
2009,07,22,16,29,25.90
2009,07,22,16,30,25.90
2009,07,22,16,31,26.00
2009,07,22,16,32,26.00
2009,07,22,16,33,26.00
2009,07,22,16,34,25.90
2009,07,22,16,35,25.90
2009,07,22,16,36,26.00
2009,07,22,16,37,26.10
2009,07,22,16,38,26.00
2009,07,22,16,39,25.90
2009,07,22,16,40,25.80
2009,07,22,16,41,25.70
2009,07,22,16,42,25.60
2009,07,22,16,43,25.50
2009,07,22,16,44,25.50
2009,07,22,16,45,25.50
2009,07,22,16,46,25.40
2009,07,22,16,47,25.40
2009,07,22,16,48,25.30
2009,07,22,16,49,25.40
2009,07,22,16,50,25.40
2009,07,22,16,51,25.50
2009,07,22,16,52,25.50
2009,07,22,16,53,25.40
2009,07,22,16,54,25.40
2009,07,22,16,55,25.30
2009,07,22,16,56,25.30
2009,07,22,16,57,25.40
2009,07,22,16,58,25.40
2009,07,22,16,59,25.40
2009,07,22,17,00,25.50
2009,07,22,17,01,25.50
2009,07,22,17,02,25.50
2009,07,22,17,03,25.50
2009,07,22,17,04,25.50
2009,07,22,17,05,25.50
2009,07,22,17,06,25.60
2009,07,22,17,07,25.60
2009,07,22,17,08,25.60
2009,07,22,17,09,25.50
2009,07,22,17,10,25.50
2009,07,22,17,11,25.40
2009,07,22,17,12,25.40
2009,07,22,17,13,25.40
2009,07,22,17,14,25.30
2009,07,22,17,15,25.30
2009,07,22,17,16,25.30
2009,07,22,17,17,25.20
2009,07,22,17,18,25.20
2009,07,22,17,19,25.20
2009,07,22,17,20,25.20
2009,07,22,17,21,25.20
2009,07,22,17,22,25.20